Content
SEND FEEDBACK

Daily
Averages
Monthly
Summary
Brazil

FLORIANOPOLIS, SANTA CATARINA


Home > South America > Brazil > Santa Catarina
Elevation: 16 feet     Latitude: 27 40S     Longitude: 048 33W

WEATHER
 
SELECT A DAY
Number of Records: 182,313;   Date Range: 6/30/96 - 7/28/14
 
SHARE

PRINT THIS DATA

[ ← Previous Day ]
WEATHER ALMANAC - OCTOBER 23, 2013
[ Next Day → ]
[ °C ]   °F
Weather ElementAverageHighLow
Temperature69.3 °F77 °F (1:00 pm)64 °F (4:00 am)
Dewpoint65.3 °F68 °F (5:00 pm)60.8 °F (12:40 am)
Humidity87.3 %100 % (7:00 am)69 % (1:00 pm)
Barometer28.97 in30.04 in (12:40 am) (7:00 pm)
Wind Speed8.3 mph16.1 mph (2:00 pm)
Weather ElementAverage
Visibility4 mi
Wind DirectionWNW (283.3 °)

Weather ElementTotal
Precipitation---
Cooling Degree Days5.5 (Base 65)
Growing Degree Days20.5 (Base 50)
Averaged from 30 records on October 23, 2013
WEATHER CONDITIONS BREAKOUT
WIND DIRECTION BREAKOUT
WEATHER BY HOUR - OCTOBER 23, 2013
[ °C ]   °F
Local TimeTemperatureDewpointHumidityBarometerVisibilityWind DirectionWind SpeedGust SpeedPrecipitationEventsConditions
12:40 AM64.4 °F60.8 °F88 %30.04 in1.6 miWSW (250°)4.6 mphRainLight Rain
1:00 AM64.4 °F62.6 °F94 %30.04 in1.6 miWSW (250°)3.5 mphRainLight Rain
2:00 AM64.4 °F62.6 °F94 %30.04 in1.9 miWest (270°)2.3 mphMostly Cloudy
3:00 AM64.4 °F62.6 °F94 %30.01 in1.9 miWNW (300°)6.9 mphMostly Cloudy
4:00 AM64.0 °F63.0 °F94 %30.00 in2.0 miWest (270°)3.5 mphMist
4:00 AM64.4 °F62.6 °F94 %29.98 in1.9 miWest (270°)3.5 mphMostly Cloudy
5:00 AM64.4 °F62.6 °F94 %29.98 in1.2 miNW (310°)5.8 mphMostly Cloudy
6:00 AM64.4 °F62.6 °F94 %29.98 in1.9 miNNW (330°)5.8 mphMostly Cloudy
7:00 AM64.4 °F64.4 °F100 %30.01 in3.1 miNW (310°)4.6 mphMostly Cloudy
7:30 AM66.2 °F64.4 °F94 %30.01 in1.6 miNNW (340°)2.3 mphLight Drizzle
8:00 AM66.2 °F64.4 °F94 %30.01 in1.6 miNW (310°)2.3 mphLight Drizzle
9:00 AM66.2 °F64.4 °F94 %30.01 in1.6 miNNW (330°)6.9 mphLight Drizzle
9:20 AM68.0 °F66.2 °F94 %30.01 in2.8 miNorth (350°)6.9 mphMostly Cloudy
10:00 AM68.0 °F66.0 °F93 %30.02 in3.0 miNorth6.9 mphRainLight Drizzle
10:00 AM68.0 °F66.2 °F94 %30.01 in3.1 miNorth (360°)6.9 mphMostly Cloudy
11:00 AM71.6 °F66.2 °F83 %30.01 in6.2 miNorth (350°)10.4 mphMostly Cloudy
11:45 AM73.4 °F66.2 °F78 %29.98 in6.2 miNorth (360°)11.5 mphMostly Cloudy
12:00 PM73.4 °F66.2 °F78 %29.98 in6.2 miNorth (360°)11.5 mphMostly Cloudy
1:00 PM77.0 °F66.2 °F69 %29.95 in6.2 miNorth (350°)13.8 mphMostly Cloudy
2:00 PM77.0 °F66.2 °F69 %29.95 in6.2 miNorth (350°)16.1 mphMostly Cloudy
3:00 PM75.2 °F66.2 °F73 %29.92 in6.2 miNorth (10°)5.8 mphMostly Cloudy
4:00 PM74.0 °F67.0 °F71 %29.89 in12.0 miNorth (10°)16.1 mphMostly Cloudy
4:00 PM73.4 °F66.2 °F78 %29.89 in6.2 miNorth (10°)16.1 mphMostly Cloudy
5:00 PM73.4 °F68.0 °F83 %29.86 in5.6 miNorth (360°)4.6 mphMostly Cloudy
6:00 PM71.6 °F68.0 °F88 %29.83 in5.6 miNorth (360°)13.8 mphMostly Cloudy
7:00 PM71.6 °F66.2 °F83 %29.86 in5.0 miNorth (360°)11.5 mphMostly Cloudy
8:00 PM71.6 °F68.0 °F88 %29.89 in5.0 miNorth (350°)11.5 mphMostly Cloudy
9:00 PM71.6 °F68.0 °F88 %2.5 miNorth (350°)9.2 mphLight Drizzle
10:00 PM69.8 °F68.0 °F94 %29.92 in3.7 miNNW (340°)10.4 mphLight Drizzle
11:00 PM71.6 °F68.0 °F88 %29.95 in5.0 miNNW (330°)12.7 mphMostly Cloudy
Hourly data recorded from SBFL, located miles away from Florianopolis, Santa Catarina







STORIES FROM OUR PARTNERS